New York, NY

12:48 AM EDT on September 22, 2017 (GMT -0400)
La Guardia

Weather History for KLGA - August, 2012

Change the Weather History Date:

Thursday, August 9, 2012

  Actual Average Record
Temperature  
Mean Temperature 83 °F 77 °F  
Max Temperature 89 °F 85 °F 104 °F (2001)
Min Temperature 76 °F 70 °F 61 °F (1962)
Degree Days  
Heating Degree Days 0 0  
Month to date heating degree days 0 0  
Since 1 June heating degree days 11 16  
Since 1 July heating degree days 0 0  
Cooling Degree Days 18 12  
Month to date cooling degree days 149 112  
Year to date cooling degree days 1014 794  
Since 1 June cooling degree days 891 728  
Growing Degree Days 32 (Base 50)    
Moisture  
Dew Point 71 °F    
Average Humidity 67    
Maximum Humidity 88    
Minimum Humidity 46    
Precipitation  
Precipitation T in 0.14 in 2.97 in (1976)
Month to date precipitation 0.69 1.32  
Year to date precipitation 21.35 27.45  
Snow  
Snow 0.00 in 0.00 in - ()
Month to date snowfall 0.0 0.0  
Since 1 July snowfall 0.0 0.0  
Snow Depth 0.00 in    
Sea Level Pressure  
Sea Level Pressure 29.92 in    
Wind  
Wind Speed 8 mph (SSW)    
Max Wind Speed 20 mph    
Max Gust Speed 24 mph    
Visibility 10 miles    
Events      
T = Trace of Precipitation, MM = Missing Value Source: NWS Daily Summary

Daily Weather History Graph

Daily Weather History Graph

Search for Another Location

Airport or City:

Trip Planner

Search our weather history database for the weather conditions in past years. The results will help you decide how hot, cold, wet, or windy it might be!

Date:

Astronomy

Aug. 09, 2012 Rise Set
Actual Time 6:00 AM EDT 8:00 PM EDT
Civil Twilight 5:30 AM EDT 8:30 PM EDT
Nautical Twilight 4:53 AM EDT 9:07 PM EDT
Astronomical Twilight 4:13 AM EDT 9:46 PM EDT
Moon 11:47 PM EDT (8/9) 1:42 PM EDT (8/9)
Length of Visible Light 15h 00m
Length of Day
14h 00m
Waning Gibbous, 51% of the Moon is Illuminated
Aug 9
Waning Gibbous
Aug 9
Last Quarter
Aug 17
New
Aug 24
First Quarter
Aug 31
Full

Hourly Weather History & Observations

Time (EDT) Temp. Heat Index Dew Point Humidity Pressure Visibility Wind Dir Wind Speed Gust Speed Precip Events Conditions
12:51 AM 78.1 °F - 73.9 °F 87% 29.95 in 10.0 mi South 4.6 mph - N/A   Scattered Clouds
1:51 AM 78.1 °F - 73.9 °F 87% 29.94 in 10.0 mi SSW 8.1 mph - N/A   Scattered Clouds
2:51 AM 77.0 °F - 73.9 °F 90% 29.94 in 10.0 mi SSW 6.9 mph - N/A   Partly Cloudy
3:51 AM 77.0 °F - 73.0 °F 88% 29.93 in 10.0 mi SW 3.5 mph - N/A   Partly Cloudy
4:51 AM 77.0 °F - 73.0 °F 88% 29.92 in 10.0 mi SSW 3.5 mph - N/A   Scattered Clouds
5:51 AM 75.9 °F - 72.0 °F 87% 29.94 in 10.0 mi SSW 3.5 mph - N/A   Scattered Clouds
6:51 AM 75.9 °F - 72.0 °F 87% 29.95 in 10.0 mi SSW 4.6 mph - N/A   Partly Cloudy
7:51 AM 79.0 °F - 72.0 °F 79% 29.95 in 10.0 mi South 4.6 mph - N/A   Partly Cloudy
8:51 AM 81.0 °F 84.9 °F 71.1 °F 72% 29.96 in 10.0 mi South 8.1 mph - N/A   Partly Cloudy
9:51 AM 84.0 °F 87.0 °F 68.0 °F 58% 29.95 in 10.0 mi WSW 6.9 mph - N/A   Partly Cloudy
10:51 AM 87.1 °F 88.9 °F 64.9 °F 48% 29.94 in 10.0 mi SW 5.8 mph - N/A   Partly Cloudy
11:51 AM 87.1 °F 89.2 °F 66.0 °F 49% 29.93 in 10.0 mi SW 8.1 mph - N/A   Partly Cloudy
12:51 PM 88.0 °F 92.1 °F 69.1 °F 53% 29.93 in 10.0 mi South 11.5 mph 16.1 mph N/A   Partly Cloudy
1:51 PM 88.0 °F 90.7 °F 66.9 °F 49% 29.91 in 10.0 mi SSE 13.8 mph 20.7 mph N/A   Partly Cloudy
2:51 PM 87.1 °F 91.3 °F 69.1 °F 55% 29.90 in 10.0 mi South 11.5 mph 21.9 mph N/A   Scattered Clouds
3:51 PM 86.0 °F 90.1 °F 69.1 °F 57% 29.89 in 10.0 mi SSE 15.0 mph - N/A   Scattered Clouds
4:51 PM 84.0 °F 89.0 °F 71.1 °F 65% 29.89 in 10.0 mi South 15.0 mph 20.7 mph N/A   Mostly Cloudy
5:51 PM 82.0 °F 86.7 °F 72.0 °F 71% 29.90 in 10.0 mi South 9.2 mph 23.0 mph N/A   Mostly Cloudy
6:51 PM 82.0 °F 85.9 °F 70.0 °F 67% 29.88 in 10.0 mi South 9.2 mph 23.0 mph 0.00 in   Mostly Cloudy
7:51 PM 81.0 °F 84.9 °F 71.1 °F 72% 29.88 in 10.0 mi South 11.5 mph 19.6 mph N/A   Mostly Cloudy
8:51 PM 80.1 °F 84.2 °F 73.0 °F 79% 29.89 in 10.0 mi South 10.4 mph 19.6 mph N/A   Mostly Cloudy
9:51 PM 79.0 °F - 73.9 °F 84% 29.91 in 10.0 mi South 10.4 mph - N/A   Mostly Cloudy
10:51 PM 80.1 °F 84.2 °F 73.0 °F 79% 29.91 in 9.0 mi SSW 6.9 mph - N/A   Mostly Cloudy
11:51 PM 80.6 °F 85.4 °F 73.4 °F 79% 29.90 in 9.0 mi South 6.9 mph - N/A   Mostly Cloudy